period_start,C,m1,H,J0,J1,J2,J3,J4,J5,JA,JB,JC,JD,JJ,JK,JN,#
2017-07-02 00:40:25,0.00,0.00,0.00,17.00,17.20,16.38,11.88,36.69,997.76,1869.08,3278.47,2845.73,3272.58,526.68,524.11,0.00,0000 0000 0000 0000 000000
2017-07-02 00:45:26,0.00,0.00,0.00,17.09,17.19,18.13,13.64,41.91,998.07,2074.29,3635.45,3156.74,3630.89,600.23,597.37,0.05,0000 0000 0000 0000 000000
2017-07-02 00:50:27,0.00,0.00,0.00,17.26,17.19,19.08,13.74,42.25,998.38,2074.00,3633.97,3155.93,3629.72,600.20,597.21,0.11,0000 0000 0000 0000 000000
2017-07-02 00:55:29,0.01,0.00,0.00,17.44,17.22,19.49,13.75,42.50,998.55,2073.98,3633.12,3155.12,3628.97,600.05,596.75,0.16,0000 0000 0000 0000 000000
2017-07-02 01:00:30,-0.00,0.00,0.00,17.50,17.29,19.86,13.75,42.66,998.57,2073.47,3632.62,3154.71,3628.15,600.21,596.59,0.21,0000 0000 0000 0000 000000
2017-07-02 01:05:31,0.00,0.00,0.00,17.61,17.39,20.23,13.67,42.88,998.80,2073.01,3631.74,3153.93,3627.21,599.65,596.10,0.26,0000 0000 0000 0000 000000
2017-07-02 01:10:32,0.01,0.00,0.00,17.85,17.53,20.63,13.76,42.77,999.03,2072.64,3630.72,3153.03,3626.09,599.83,595.95,0.31,0000 0000 0000 0000 000000
2017-07-02 01:15:33,0.02,0.00,0.00,18.14,17.69,21.01,13.68,42.50,999.12,2072.03,3629.70,3152.10,3624.90,600.01,595.58,0.36,0000 0000 0000 0000 000000
2017-07-02 01:20:35,-0.02,0.00,0.00,18.44,17.88,21.39,13.73,42.51,999.38,2071.51,3628.68,3151.15,3623.66,600.46,595.50,0.41,0000 0000 0000 0000 000000
2017-07-02 01:25:36,0.05,0.00,0.00,18.78,18.09,21.74,13.74,42.69,999.51,2070.97,3627.42,3149.87,3622.20,600.09,594.50,0.46,0000 0000 0000 0000 000000
2017-07-02 01:30:37,-0.00,0.00,0.00,19.07,18.32,22.10,13.65,42.70,999.53,2070.17,3625.78,3148.56,3620.60,600.03,593.88,0.51,0000 0000 0000 0000 000000
2017-07-02 01:35:39,-0.02,0.00,0.00,19.34,18.55,22.43,13.70,42.81,999.53,2069.34,3624.51,3147.25,3618.86,600.34,593.77,0.56,0000 0000 0000 0000 000000
2017-07-02 01:40:40,-0.02,0.00,0.00,19.56,18.79,22.75,13.64,42.81,999.65,2068.49,3623.29,3146.01,3617.38,599.83,592.85,0.61,0000 0000 0000 0000 000000
2017-07-02 01:45:41,0.01,0.00,0.00,19.73,19.04,23.06,13.66,42.78,999.98,2067.52,3621.70,3144.57,3615.57,600.03,592.88,0.66,0000 0000 0000 0000 000000
2017-07-02 01:50:43,0.00,0.00,0.00,19.89,19.30,23.37,13.63,42.90,1000.01,2066.60,3620.08,3143.07,3613.76,599.55,591.96,0.71,0000 0000 0000 0000 000000
2017-07-02 01:55:44,0.04,0.00,0.00,20.05,19.56,23.65,13.64,42.81,1000.05,2065.82,3618.43,3141.56,3611.99,599.91,592.08,0.76,0000 0000 0000 0000 000000
2017-07-02 02:00:45,0.01,0.00,0.00,20.21,19.82,23.92,13.65,42.61,1000.18,2064.89,3616.75,3140.02,3610.16,599.72,591.79,0.81,0000 0000 0000 0000 000000
2017-07-02 02:05:46,-0.00,0.00,0.00,20.34,20.07,24.18,13.64,42.71,1000.29,2063.93,3615.17,3138.59,3608.32,599.82,591.59,0.86,0000 0000 0000 0000 000000
2017-07-02 02:10:47,0.01,0.00,0.00,20.47,20.32,24.43,13.69,42.81,1000.45,2062.98,3613.58,3137.01,3606.49,600.04,591.59,0.91,0000 0000 0000 0000 000000
2017-07-02 02:15:49,0.01,0.01,0.00,20.57,20.56,24.68,13.62,42.73,1000.52,2062.02,3611.90,3135.46,3604.55,599.83,591.25,0.96,0000 0000 0000 0000 000000
2017-07-02 02:20:50,-0.01,0.00,0.00,20.67,20.81,24.91,13.67,42.71,1000.56,2061.07,3610.21,3134.10,3602.71,600.12,591.37,1.01,0000 0000 0000 0000 000000
2017-07-02 02:25:51,-0.01,0.00,0.00,20.75,21.04,25.12,13.69,42.68,1000.67,2060.19,3608.77,3132.74,3601.09,599.94,591.16,1.06,0000 0000 0000 0000 000000
2017-07-02 02:30:52,-0.00,0.00,0.00,20.82,21.27,25.27,13.66,42.58,1000.93,2059.16,3607.21,3131.33,3599.28,599.75,590.98,1.11,0000 0000 0000 0000 000000
2017-07-02 02:35:54,-0.00,0.00,0.00,20.87,21.49,25.34,13.62,42.61,1000.98,2058.26,3605.64,3129.85,3597.53,600.04,591.20,1.16,0000 0000 0000 0000 000000
2017-07-02 02:40:55,-0.00,0.01,0.00,20.91,21.70,25.29,13.70,42.70,1000.99,2057.41,3604.11,3128.53,3595.86,600.05,591.10,1.21,0000 0000 0000 0000 000000
2017-07-02 02:45:57,0.01,0.01,0.00,20.95,21.89,25.28,13.68,42.52,1001.03,2056.68,3602.63,3127.16,3594.34,600.08,591.03,1.26,0000 0000 0000 0000 000000
2017-07-02 02:50:58,0.01,0.01,0.00,20.98,22.08,25.36,13.62,42.42,1001.17,2055.86,3601.35,3125.90,3592.81,599.75,590.69,1.31,0000 0000 0000 0000 000000
2017-07-02 02:56:00,0.01,0.01,0.00,21.01,22.27,25.47,13.63,42.49,1001.20,2055.03,3600.01,3124.68,3591.37,599.88,590.86,1.36,0000 0000 0000 0000 000000
2017-07-02 03:01:01,-0.02,0.01,0.00,21.02,22.44,25.58,13.68,42.50,1001.27,2054.21,3598.86,3123.57,3589.92,599.80,590.76,1.41,0000 0000 0000 0000 000000
2017-07-02 03:06:02,-0.01,0.01,0.00,21.02,22.61,25.69,13.73,42.52,1001.44,2053.58,3597.73,3122.58,3588.67,600.17,591.33,1.46,0000 0000 0000 0000 000000
2017-07-02 03:11:03,0.02,0.01,0.00,21.02,22.77,25.82,13.73,42.52,1001.48,2052.84,3596.51,3121.48,3587.30,600.36,591.39,1.51,0000 0000 0000 0000 000000
2017-07-02 03:16:04,-0.01,0.00,0.00,21.01,22.91,25.96,13.68,42.58,1001.48,2052.06,3595.36,3120.44,3586.08,600.24,591.43,1.56,0000 0000 0000 0000 000000
2017-07-02 03:21:06,-0.01,0.01,0.00,21.03,23.05,26.08,13.69,42.53,1001.49,2051.64,3594.40,3119.62,3584.96,600.01,591.14,1.61,0000 0000 0000 0000 000000
2017-07-02 03:26:07,0.01,0.00,0.00,21.04,23.18,26.15,13.77,42.64,1001.53,2051.01,3593.54,3118.76,3583.98,600.17,591.28,1.66,0000 0000 0000 0000 000000
2017-07-02 03:31:09,-0.03,0.00,0.00,21.05,23.31,26.24,13.71,42.58,1001.66,2050.35,3592.55,3117.87,3583.06,599.83,591.05,1.71,0000 0000 0000 0000 000000
2017-07-02 03:36:10,0.03,0.01,0.00,21.10,23.42,26.34,13.80,42.67,1001.78,2049.99,3591.73,3117.05,3582.15,600.28,591.29,1.76,0000 0000 0000 0000 000000
2017-07-02 03:41:12,-0.03,0.00,0.00,21.14,23.53,26.43,13.70,42.65,1001.97,2049.29,3590.72,3116.19,3581.14,599.86,591.22,1.81,0000 0000 0000 0000 000000
2017-07-02 03:46:13,0.04,0.01,0.00,21.20,23.64,26.51,13.66,42.48,1001.97,2048.99,3589.80,3115.35,3580.15,599.91,591.01,1.86,0000 0000 0000 0000 000000
2017-07-02 03:51:14,-0.03,0.01,0.00,21.27,23.74,26.59,13.62,42.44,1001.97,2048.45,3589.02,3114.69,3579.25,599.46,590.35,1.91,0000 0000 0000 0000 000000
2017-07-02 03:56:16,0.02,0.01,0.00,21.33,23.85,26.69,13.72,42.37,1001.97,2047.99,3588.16,3113.94,3578.35,600.06,590.83,1.96,0000 0000 0000 0000 000000
2017-07-02 04:01:17,-0.02,0.01,0.00,21.41,23.95,26.76,13.76,42.44,1002.03,2047.46,3587.46,3113.13,3577.54,600.13,590.86,2.01,0000 0000 0000 0000 000000
2017-07-02 04:06:18,0.03,0.00,0.00,21.49,24.05,26.86,13.71,42.56,1002.22,2047.01,3586.75,3112.51,3576.70,600.19,590.63,2.06,0000 0000 0000 0000 000000
2017-07-02 04:11:20,0.03,0.01,0.00,21.58,24.15,26.95,13.73,42.43,1002.36,2046.99,3585.87,3111.76,3575.78,600.29,590.80,2.11,0000 0000 0000 0000 000000
2017-07-02 04:16:21,-0.05,0.01,0.00,21.66,24.25,27.04,13.73,42.61,1002.31,2046.33,3585.09,3111.02,3574.87,600.26,590.63,2.16,0000 0000 0000 0000 000000
2017-07-02 04:21:22,0.04,0.01,0.00,21.74,24.35,27.14,13.66,42.69,1002.43,2045.99,3584.26,3110.19,3574.01,599.76,589.97,2.21,0000 0000 0000 0000 000000
2017-07-02 04:26:23,-0.03,0.01,0.00,21.80,24.45,27.24,13.60,42.47,1002.44,2045.60,3583.75,3109.75,3573.12,599.83,589.98,2.26,0000 0000 0000 0000 000000
2017-07-02 04:31:24,0.01,0.01,0.00,21.87,24.55,27.34,13.71,42.43,1002.43,2045.03,3583.03,3109.01,3572.40,600.17,590.17,2.31,0000 0000 0000 0000 000000
2017-07-02 04:36:26,0.04,0.01,0.00,21.92,24.64,27.43,13.69,42.54,1002.46,2044.95,3582.54,3108.34,3571.79,600.11,589.91,2.36,0000 0000 0000 0000 000000
2017-07-02 04:41:27,-0.05,0.01,0.00,21.99,24.74,27.52,13.70,42.52,1002.52,2044.27,3581.88,3107.76,3570.98,600.04,589.83,2.41,0000 0000 0000 0000 000000
2017-07-02 04:46:28,0.02,0.01,0.00,22.05,24.83,27.60,13.69,42.49,1002.73,2044.00,3581.08,3107.03,3570.13,600.13,589.99,2.47,0000 0000 0000 0000 000000
2017-07-02 04:51:30,0.00,0.01,0.00,22.11,24.92,27.68,13.69,42.51,1002.83,2043.65,3580.47,3106.46,3569.31,599.89,589.61,2.52,0000 0000 0000 0000 000000
2017-07-02 04:56:31,-0.03,0.01,0.00,22.16,25.00,27.78,13.67,42.40,1002.89,2043.03,3579.94,3105.96,3568.64,600.06,589.71,2.57,0000 0000 0000 0000 000000
2017-07-02 05:01:32,0.03,0.01,0.00,22.22,25.09,27.87,13.72,42.49,1002.91,2042.96,3579.16,3105.20,3568.00,600.03,589.66,2.62,0000 0000 0000 0000 000000
2017-07-02 05:06:33,-0.04,0.01,0.00,22.26,25.18,27.95,13.70,42.46,1002.91,2042.37,3578.73,3104.88,3567.27,599.86,589.33,2.67,0000 0000 0000 0000 000000
2017-07-02 05:11:34,0.02,0.01,0.00,22.30,25.27,28.04,13.68,42.45,1002.94,2042.01,3578.01,3104.07,3566.58,599.92,589.33,2.72,0000 0000 0000 0000 000000
2017-07-02 05:16:36,0.02,0.01,0.00,22.32,25.35,28.11,13.72,42.47,1003.05,2041.89,3577.29,3103.62,3565.91,599.92,589.31,2.77,0000 0000 0000 0000 000000
2017-07-02 05:21:37,-0.04,0.01,0.00,22.35,25.43,28.18,13.69,42.51,1003.29,2041.20,3576.71,3103.00,3565.08,599.96,589.59,2.82,0000 0000 0000 0000 000000
2017-07-02 05:26:38,0.03,0.01,0.00,22.38,25.50,28.24,13.76,42.39,1003.40,2041.00,3575.97,3102.38,3564.53,600.28,589.75,2.87,0000 0000 0000 0000 000000
2017-07-02 05:31:40,0.02,0.01,0.00,22.42,25.58,28.30,13.65,42.43,1003.45,2040.98,3575.12,3101.91,3563.93,599.88,589.38,2.92,0000 0000 0000 0000 000000
2017-07-02 05:36:41,-0.00,0.01,0.00,22.45,25.65,28.37,13.71,42.45,1003.60,2040.73,3574.82,3101.18,3563.16,600.25,589.87,2.97,0000 0000 0000 0000 000000
2017-07-02 05:41:42,-0.01,0.01,0.00,22.49,25.72,28.43,13.73,42.23,1003.90,2040.06,3574.04,3100.80,3562.48,600.09,589.61,3.02,0000 0000 0000 0000 000000
2017-07-02 05:46:44,0.03,0.01,0.00,22.53,25.79,28.48,13.68,42.27,1003.92,2040.00,3573.45,3100.09,3561.99,600.17,589.71,3.07,0000 0000 0000 0000 000000
2017-07-02 05:51:45,0.02,0.01,0.00,22.57,25.85,28.55,13.63,42.25,1003.93,2039.97,3572.96,3099.76,3561.20,599.82,589.22,3.12,0000 0000 0000 0000 000000
2017-07-02 05:56:46,-0.04,0.01,0.00,22.63,25.92,28.61,13.71,42.36,1003.93,2039.44,3572.31,3099.05,3560.84,599.91,589.26,3.17,0000 0000 0000 0000 000000
2017-07-02 06:01:47,-0.00,0.01,0.00,22.65,25.98,28.68,13.71,42.33,1004.04,2039.03,3572.00,3098.96,3560.07,599.97,589.43,3.22,0000 0000 0000 0000 000000
2017-07-02 06:06:49,0.04,0.01,0.00,22.67,26.04,28.74,13.65,42.28,1004.36,2038.99,3571.37,3098.19,3559.68,599.98,589.39,3.27,0000 0000 0000 0000 000000
2017-07-02 06:11:50,-0.01,0.01,0.00,22.70,26.10,28.79,13.73,42.24,1004.41,2038.79,3571.00,3097.99,3559.02,600.17,589.73,3.32,0000 0000 0000 0000 000000
2017-07-02 06:16:51,-0.04,0.01,0.00,22.75,26.16,28.84,13.70,42.16,1004.44,2038.12,3570.70,3097.67,3558.84,599.89,589.27,3.37,0000 0000 0000 0000 000000
2017-07-02 06:21:52,0.02,0.01,0.00,22.78,26.21,28.90,13.68,42.30,1004.51,2038.00,3570.08,3097.04,3558.05,600.01,589.32,3.42,0000 0000 0000 0000 000000
2017-07-02 06:26:53,-0.01,0.01,0.00,22.80,26.26,28.94,13.74,42.32,1004.79,2037.92,3570.00,3096.98,3557.87,600.12,589.74,3.47,0000 0000 0000 0000 000000
2017-07-02 06:31:55,-0.03,0.01,0.00,22.84,26.32,28.99,13.68,42.34,1004.90,2037.33,3569.55,3096.50,3557.10,599.76,589.29,3.52,0000 0000 0000 0000 000000
2017-07-02 06:36:56,-0.00,0.01,0.00,22.85,26.37,29.05,13.74,42.34,1004.95,2037.01,3569.03,3096.02,3556.96,599.93,589.33,3.57,0000 0000 0000 0000 000000
2017-07-02 06:41:57,0.01,0.01,0.00,22.87,26.42,29.10,13.72,42.33,1005.14,2036.99,3568.95,3095.98,3556.25,599.70,589.23,3.62,0000 0000 0000 0000 000000
2017-07-02 06:46:58,0.03,0.01,0.00,22.90,26.47,29.15,13.64,42.21,1005.16,2036.95,3568.27,3095.38,3555.99,599.65,589.11,3.67,0000 0000 0000 0000 000000
2017-07-02 06:52:00,-0.06,0.01,0.00,22.92,26.51,29.20,13.73,42.19,1005.21,2036.38,3568.00,3095.02,3555.49,599.96,589.51,3.72,0000 0000 0000 0000 000000
2017-07-02 06:57:01,0.00,0.01,0.00,22.94,26.56,29.24,13.76,42.16,1005.34,2036.04,3567.82,3094.97,3555.01,599.92,589.33,3.77,0000 0000 0000 0000 000000
2017-07-02 07:02:02,0.02,0.01,0.00,22.97,26.59,29.27,13.71,42.14,1005.38,2036.00,3567.11,3094.33,3554.89,599.85,589.42,3.82,0000 0000 0000 0000 000000
2017-07-02 07:07:03,0.01,0.01,0.00,22.96,26.64,29.33,13.69,42.08,1005.39,2036.00,3566.99,3094.01,3554.20,599.84,589.43,3.87,0000 0000 0000 0000 000000
2017-07-02 07:12:05,0.00,0.01,0.00,22.97,26.68,29.37,13.66,42.04,1005.42,2035.94,3566.58,3093.99,3554.00,599.98,589.50,3.92,0000 0000 0000 0000 000000
2017-07-02 07:17:06,-0.03,0.01,0.00,22.97,26.71,29.41,13.66,42.06,1005.63,2035.37,3566.03,3093.56,3553.73,599.69,589.38,3.97,0000 0000 0000 0000 000000
2017-07-02 07:22:08,0.00,0.01,0.00,22.99,26.75,29.45,13.77,42.07,1005.86,2035.03,3566.00,3093.05,3553.07,600.21,589.95,4.02,0000 0000 0000 0000 000000
2017-07-02 07:27:09,0.00,0.01,0.00,23.00,26.79,29.49,13.69,42.02,1005.87,2035.00,3565.86,3093.00,3553.00,600.05,589.77,4.07,0000 0000 0000 0000 000000
2017-07-02 07:32:10,0.01,0.01,0.00,23.00,26.82,29.52,13.74,42.00,1005.90,2035.00,3565.27,3092.99,3552.94,600.14,589.81,4.12,0000 0000 0000 0000 000000
2017-07-02 07:37:12,0.02,0.01,0.00,23.02,26.85,29.57,13.70,42.06,1006.15,2034.99,3565.04,3092.81,3552.38,599.84,589.78,4.17,0000 0000 0000 0000 000000
2017-07-02 07:42:13,0.01,0.01,0.00,23.04,26.89,29.59,13.71,41.95,1006.35,2034.97,3564.99,3092.17,3552.01,599.90,589.94,4.22,0000 0000 0000 0000 000000
2017-07-02 07:47:15,-0.02,0.01,0.00,23.06,26.91,29.60,13.75,42.05,1006.37,2034.71,3564.84,3092.01,3552.00,599.93,589.83,4.27,0000 0000 0000 0000 000000
2017-07-02 07:52:16,-0.03,0.01,0.00,23.06,26.94,29.63,13.69,42.13,1006.39,2034.11,3564.14,3091.99,3551.71,600.01,589.88,4.32,0000 0000 0000 0000 000000
2017-07-02 07:57:17,0.01,0.01,0.00,23.07,26.97,29.66,13.73,42.08,1006.56,2034.02,3564.00,3091.91,3551.15,599.97,589.99,4.37,0000 0000 0000 0000 000000
2017-07-02 08:02:19,0.01,0.01,0.00,23.07,27.00,29.70,13.78,42.15,1006.84,2034.00,3563.98,3091.32,3551.00,599.93,590.11,4.42,0000 0000 0000 0000 000000
2017-07-02 08:07:20,0.01,0.01,0.00,23.10,27.03,29.74,13.71,41.95,1006.86,2034.00,3563.61,3091.03,3550.90,599.76,589.85,4.47,0000 0000 0000 0000 000000
2017-07-02 08:12:22,0.01,0.01,0.00,23.11,27.05,29.76,13.75,41.96,1006.98,2033.99,3563.04,3091.00,3550.16,600.13,590.36,4.52,0000 0000 0000 0000 000000
2017-07-02 08:17:23,0.00,0.01,0.00,23.11,27.07,29.79,13.83,41.99,1006.99,2033.97,3562.99,3090.99,3550.01,600.12,590.27,4.57,0000 0000 0000 0000 000000
2017-07-02 08:22:24,0.01,0.01,0.00,23.08,27.10,29.85,13.74,41.95,1007.31,2033.93,3562.85,3090.77,3549.98,599.78,590.19,4.62,0000 0000 0000 0000 000000
2017-07-02 08:27:25,0.00,0.01,0.00,23.05,27.12,29.91,13.81,41.83,1007.34,2033.70,3562.15,3090.15,3549.65,600.08,590.56,4.67,0000 0000 0000 0000 000000
2017-07-02 08:32:27,-0.02,0.01,0.00,23.03,27.14,29.97,13.74,42.07,1007.34,2033.29,3562.01,3090.01,3549.05,599.83,590.30,4.72,0000 0000 0000 0000 000000
2017-07-02 08:37:28,-0.01,0.01,0.00,23.00,27.15,30.07,13.76,41.86,1007.44,2033.03,3561.98,3090.00,3549.00,599.84,590.39,4.78,0000 0000 0000 0000 000000
2017-07-02 08:42:29,0.00,0.01,0.00,22.99,27.17,30.10,13.76,41.98,1007.70,2033.02,3561.91,3089.99,3548.99,599.78,590.62,4.83,0000 0000 0000 0000 000000
2017-07-02 08:47:30,0.00,0.01,0.00,22.97,27.18,30.15,13.78,41.85,1007.79,2033.02,3561.68,3089.98,3548.91,599.83,590.73,4.88,0000 0000 0000 0000 000000
2017-07-02 08:52:32,0.01,0.01,0.00,22.94,27.20,30.18,13.74,42.11,1007.82,2033.00,3561.12,3089.91,3548.28,599.91,590.91,4.93,0000 0000 0000 0000 000000
2017-07-02 08:57:33,0.01,0.01,0.00,22.92,27.20,30.21,13.86,42.08,1007.84,2033.00,3561.02,3089.78,3548.08,600.15,591.16,4.98,0000 0000 0000 0000 000000
2017-07-02 09:02:34,0.01,0.01,0.00,22.88,27.20,30.21,13.80,42.01,1008.19,2033.00,3561.00,3089.41,3548.01,600.10,591.47,5.03,0000 0000 0000 0000 000000
2017-07-02 09:07:35,0.00,0.01,0.00,22.87,27.21,30.22,13.81,42.05,1008.32,2032.99,3561.00,3089.10,3548.00,600.16,591.57,5.08,0000 0000 0000 0000 000000
2017-07-02 09:12:36,0.00,0.01,0.00,22.84,27.22,30.24,13.83,42.04,1008.41,2032.98,3561.00,3089.11,3548.00,600.28,591.62,5.13,0000 0000 0000 0000 000000
2017-07-02 09:17:37,0.00,0.01,0.00,22.82,27.22,30.21,13.75,42.11,1008.74,2032.98,3560.97,3089.05,3548.00,599.90,591.74,5.18,0000 0000 0000 0000 000000
2017-07-02 09:22:38,0.00,0.01,0.00,22.81,27.22,30.21,13.82,42.06,1008.80,2032.97,3560.99,3089.06,3547.98,600.03,591.88,5.23,0000 0000 0000 0000 000000
2017-07-02 09:27:39,0.00,0.01,0.00,22.79,27.22,30.22,13.77,42.13,1008.81,2032.98,3560.98,3089.06,3547.98,599.96,591.75,5.28,0000 0000 0000 0000 000000
2017-07-02 09:32:41,-0.00,0.01,0.00,22.78,27.20,30.21,13.85,42.21,1008.81,2032.98,3560.98,3089.16,3547.98,600.36,592.35,5.33,0000 0000 0000 0000 000000
2017-07-02 09:37:42,0.00,0.01,0.00,22.75,27.20,30.21,13.85,42.22,1008.81,2032.98,3560.98,3089.15,3547.98,600.30,592.24,5.38,0000 0000 0000 0000 000000
2017-07-02 09:42:44,0.00,0.01,0.00,22.73,27.20,30.20,13.75,42.29,1008.80,2032.98,3560.94,3089.10,3547.97,599.74,591.79,5.43,0000 0000 0000 0000 000000
2017-07-02 09:47:44,-0.00,0.01,0.00,22.71,27.20,30.19,13.86,42.33,1008.80,2032.96,3560.87,3089.06,3547.95,600.10,592.14,5.48,0000 0000 0000 0000 000000
2017-07-02 09:52:46,-0.00,0.01,0.00,22.69,27.20,30.18,13.85,42.33,1008.80,2032.96,3560.90,3089.06,3547.96,600.01,592.06,5.53,0000 0000 0000 0000 000000
2017-07-02 09:57:47,0.01,0.01,0.00,22.67,27.18,30.16,13.86,42.26,1008.80,2032.98,3560.76,3089.07,3547.96,600.14,592.26,5.58,0000 0000 0000 0000 000000
2017-07-02 10:02:48,-0.00,0.01,0.00,22.65,27.17,30.17,13.79,42.34,1008.80,2032.99,3560.70,3089.08,3547.95,600.18,592.34,5.63,0000 0000 0000 0000 000000
2017-07-02 10:07:50,-0.00,0.01,0.00,22.63,27.17,30.15,13.82,42.21,1008.82,2032.99,3560.80,3089.17,3547.97,600.03,592.22,5.68,0000 0000 0000 0000 000000
2017-07-02 10:12:51,0.00,0.01,0.00,22.61,27.15,30.14,13.87,42.34,1008.83,2032.99,3560.87,3089.24,3547.97,599.99,592.29,5.73,0000 0000 0000 0000 000000
2017-07-02 10:17:52,0.00,0.01,0.00,22.59,27.15,30.11,13.87,42.42,1008.85,2032.99,3560.77,3089.27,3547.97,600.27,592.64,5.78,0000 0000 0000 0000 000000
2017-07-02 10:22:53,-0.01,0.01,0.00,22.57,27.13,30.10,13.86,42.39,1009.07,2032.99,3560.88,3089.61,3547.99,600.02,592.45,5.83,0000 0000 0000 0000 000000
2017-07-02 10:27:54,-0.00,0.01,0.00,22.56,27.12,30.07,13.80,42.33,1009.29,2032.99,3560.91,3089.82,3547.99,599.93,592.59,5.88,0000 0000 0000 0000 000000
2017-07-02 10:32:56,-0.00,0.01,0.00,22.53,27.11,30.05,13.83,42.28,1009.30,2032.99,3560.95,3089.88,3547.99,599.91,592.55,5.93,0000 0000 0000 0000 000000
2017-07-02 10:37:57,0.00,0.01,0.00,22.51,27.10,30.04,13.83,41.99,1009.56,2032.99,3560.98,3089.99,3547.99,599.94,592.76,5.98,0000 0000 0000 0000 000000
2017-07-02 10:42:58,0.00,0.01,0.00,22.49,27.08,30.02,13.85,42.06,1009.68,2032.99,3560.99,3089.98,3547.99,600.27,593.27,6.03,0000 0000 0000 0000 000000
2017-07-02 10:48:00,0.00,0.01,0.00,22.47,27.07,30.00,13.87,42.21,1009.66,2033.00,3560.98,3089.99,3547.99,600.29,593.48,6.08,0000 0000 0000 0000 000000
2017-07-02 10:53:01,0.00,0.01,0.00,22.46,27.05,30.00,13.81,42.08,1009.78,2033.00,3560.98,3089.98,3547.99,599.86,593.00,6.13,0000 0000 0000 0000 000000
2017-07-02 10:58:02,0.00,0.01,0.00,22.44,27.05,29.99,13.92,42.13,1009.79,2033.00,3560.98,3089.98,3547.99,600.16,593.32,6.18,0000 0000 0000 0000 000000
2017-07-02 11:03:04,0.00,0.01,0.00,22.43,27.02,29.96,13.84,42.15,1009.78,2033.01,3560.99,3089.99,3548.00,599.94,593.00,6.23,0000 0000 0000 0000 000000
2017-07-02 11:08:05,0.00,0.01,0.00,22.42,27.01,29.95,13.84,42.11,1009.79,2033.04,3560.99,3089.99,3548.01,600.24,593.45,6.28,0000 0000 0000 0000 000000
2017-07-02 11:13:06,0.00,0.01,0.00,22.41,27.00,29.93,13.80,42.02,1009.81,2033.08,3560.99,3090.01,3548.05,600.14,593.23,6.33,0000 0000 0000 0000 000000
2017-07-02 11:18:08,-0.00,0.01,0.00,22.39,26.98,29.90,13.86,42.17,1010.09,2033.07,3561.00,3090.03,3548.09,599.91,593.31,6.38,0000 0000 0000 0000 000000
2017-07-02 11:23:09,0.02,0.01,0.00,22.38,26.97,29.88,13.88,42.12,1010.25,2033.32,3561.01,3090.11,3548.40,600.30,593.75,6.43,0000 0000 0000 0000 000000
2017-07-02 11:28:11,0.01,0.01,0.00,22.36,26.95,29.89,13.89,42.11,1010.27,2033.63,3561.08,3090.46,3548.80,600.02,593.55,6.48,0000 0000 0000 0000 000000
2017-07-02 11:33:12,0.01,0.01,0.00,22.34,26.94,29.87,13.87,42.06,1010.27,2033.93,3561.13,3090.83,3548.97,600.16,593.80,6.53,0000 0000 0000 0000 000000
2017-07-02 11:38:13,0.00,0.01,0.00,22.34,26.92,29.86,13.85,42.02,1010.27,2033.95,3561.12,3090.92,3548.97,599.62,593.28,6.58,0000 0000 0000 0000 000000
2017-07-02 11:43:14,0.00,0.01,0.00,22.31,26.91,29.82,13.82,42.13,1010.29,2033.97,3561.18,3090.95,3548.98,600.01,593.72,6.63,0000 0000 0000 0000 000000
2017-07-02 11:48:16,-0.01,0.01,0.00,22.30,26.90,29.81,13.93,42.05,1010.34,2033.98,3561.45,3090.97,3548.99,600.09,593.86,6.68,0000 0000 0000 0000 000000
2017-07-02 11:53:17,-0.00,0.01,0.00,22.28,26.88,29.80,13.87,42.06,1010.32,2033.99,3561.63,3090.99,3548.99,599.93,593.69,6.73,0000 0000 0000 0000 000000
2017-07-02 11:58:18,0.00,0.01,0.00,22.27,26.86,29.78,13.85,42.12,1010.30,2033.99,3561.77,3090.99,3548.99,600.22,594.03,6.78,0000 0000 0000 0000 000000
2017-07-02 12:03:19,0.00,0.01,0.00,22.24,26.85,29.77,13.84,42.08,1010.37,2033.99,3561.92,3090.99,3549.01,599.80,593.80,6.83,0000 0000 0000 0000 000000
2017-07-02 12:08:20,0.00,0.01,0.00,22.23,26.83,29.74,13.83,42.13,1010.55,2033.99,3561.98,3091.00,3549.03,599.92,593.97,6.88,0000 0000 0000 0000 000000
2017-07-02 12:13:21,0.00,0.01,0.00,22.22,26.82,29.74,13.86,42.25,1010.69,2033.99,3561.98,3091.01,3549.05,599.77,593.87,6.93,0000 0000 0000 0000 000000
2017-07-02 12:18:22,0.00,0.01,0.00,22.20,26.80,29.71,13.90,42.34,1010.69,2034.00,3561.99,3091.02,3549.18,600.04,594.29,6.98,0000 0000 0000 0000 000000
2017-07-02 12:23:24,-0.00,0.01,0.00,22.18,26.78,29.70,13.90,42.25,1010.75,2034.01,3561.99,3091.14,3549.54,599.90,594.09,7.03,0000 0000 0000 0000 000000
2017-07-02 12:28:25,-0.01,0.01,0.00,22.17,26.77,29.68,13.87,42.27,1010.72,2034.02,3561.99,3091.36,3549.75,599.98,594.24,7.08,0000 0000 0000 0000 000000
2017-07-02 12:33:26,-0.01,0.01,0.00,22.16,26.75,29.67,13.86,42.22,1010.75,2034.05,3561.99,3091.80,3549.95,600.10,594.39,7.13,0000 0000 0000 0000 000000
2017-07-02 12:38:28,0.00,0.01,0.00,22.14,26.73,29.66,13.91,42.27,1010.77,2034.04,3561.99,3091.78,3549.93,600.31,594.56,7.19,0000 0000 0000 0000 000000
2017-07-02 12:43:28,0.00,0.01,0.00,22.12,26.72,29.64,13.89,42.17,1010.89,2034.10,3562.02,3091.94,3549.98,599.83,594.42,7.24,0000 0000 0000 0000 000000
2017-07-02 12:48:30,0.02,0.01,0.00,22.10,26.70,29.62,13.93,42.30,1011.08,2034.31,3562.04,3091.99,3549.99,600.05,594.63,7.29,0000 0000 0000 0000 000000
2017-07-02 12:53:31,0.02,0.01,0.00,22.09,26.68,29.62,13.90,42.20,1011.23,2034.65,3562.04,3091.99,3549.99,599.80,594.50,7.34,0000 0000 0000 0000 000000
2017-07-02 12:58:32,0.01,0.01,0.00,22.08,26.67,29.60,13.92,42.17,1011.21,2034.91,3562.18,3091.99,3550.00,600.04,594.79,7.39,0000 0000 0000 0000 000000
2017-07-02 13:03:34,-0.00,0.01,0.00,22.07,26.65,29.58,13.93,42.27,1011.12,2034.97,3562.67,3091.99,3550.05,600.00,594.67,7.44,0000 0000 0000 0000 000000
2017-07-02 13:08:35,-0.00,0.01,0.00,22.05,26.64,29.57,13.95,42.10,1010.88,2034.98,3562.95,3092.09,3550.30,600.51,595.11,7.49,0000 0000 0000 0000 000000
2017-07-02 13:13:36,-0.01,0.01,0.00,22.04,26.62,29.56,13.93,42.19,1010.92,2034.99,3562.99,3092.47,3550.86,600.06,594.67,7.54,0000 0000 0000 0000 000000
2017-07-02 13:18:37,-0.00,0.01,0.00,22.02,26.60,29.54,13.87,42.28,1011.23,2034.99,3562.98,3092.47,3550.87,599.70,594.56,7.59,0000 0000 0000 0000 000000
2017-07-02 13:23:38,-0.01,0.01,0.00,22.00,26.59,29.51,13.91,42.42,1011.24,2034.99,3562.99,3092.79,3550.94,599.87,594.78,7.64,0000 0000 0000 0000 000000
2017-07-02 13:28:40,0.00,0.01,0.00,22.00,26.57,29.51,13.87,42.22,1011.25,2034.99,3562.99,3092.93,3550.97,600.13,595.01,7.69,0000 0000 0000 0000 000000
2017-07-02 13:33:41,0.00,0.01,0.00,21.98,26.57,29.48,13.91,42.18,1011.27,2034.99,3563.01,3092.99,3550.99,600.07,594.87,7.74,0000 0000 0000 0000 000000
2017-07-02 13:38:42,0.00,0.01,0.00,21.97,26.55,29.47,13.87,42.29,1011.31,2035.00,3563.03,3092.99,3551.01,599.36,594.35,7.79,0000 0000 0000 0000 000000